Regional Weather Roundup
Issued by NWS Green Bay, WI

Home | Current Version | Previous Version | Graphics & Text | Print | Product List | Glossary Off
Versions: 1 2 3 4 5 6 7 8 9 10 11 12 13 14 15 16 17 18 19 20 21 22 23 24 25 26 27 28 29 30 31 32 33 34 35 36 37 38 39 40 41 42 43 44 45 46 47 48 49 50

000
ASUS43 KGRB 182310
RWRGRB

NORTH-CENTRAL AND NORTHEAST WISCONSIN REGIONAL WEATHER ROUNDUP
NATIONAL WEATHER SERVICE GREEN BAY WI
500 PM CST THU DEC 18 2014

WIZ005-009-010>012-018-019-190000-
NORTH CENTRAL WISCONSIN

CITY           SKY/WX    TMP DP  RH WIND       PRES   REMARKS
IRONWOOD       CLOUDY    18  16  93 CALM      30.21S
MANITOWISH WTR CLEAR     16  15  95 CALM      30.21R
ARBOR VITAE    CLEAR     19  17  90 CALM      30.21S
EAGLE RIVER    PTCLDY    18  15  88 CALM      30.20S
LAND O LAKES   CLEAR     16  14  92 CALM      30.21S
RHINELANDER    MOCLDY    21  15  78 NW3       30.20S
PHILLIPS       CLOUDY    21  17  82 CALM      30.22S
ANTIGO         CLEAR     19  17  88 NW3       30.20S
TOMAHAWK       CLEAR     16  14  91 CALM      30.22S
MERRILL        CLEAR     18  16  91 CALM      30.22S
$$

WIZ013-073-190000-
NORTHEAST WISCONSIN

CITY           SKY/WX    TMP DP  RH WIND       PRES   REMARKS
IRON MOUNTAIN  CLEAR     18  13  80 CALM      30.22R
MARINETTE      CLEAR     27  18  69 NE3       30.24S
OCONTO         CLEAR     22  19  90 CALM      30.25R
$$

WIZ017-030-035>037-045-190000-
CENTRAL WISCONSIN

CITY           SKY/WX    TMP DP  RH WIND       PRES   REMARKS
MEDFORD        CLOUDY    22  18  85 CALM      30.21S
WAUSAU         PTCLDY    24  17  74 NW5       30.21S
MOSINEE        MOCLDY    25  21  86 N5        30.23S
MARSHFIELD     CLOUDY    25  18  74 CALM      30.22S
WISC RAPIDS    CLOUDY    26  18  71 N3        30.25R
STEVENS POINT  MOCLDY    24  18  79 CALM      30.24R
WAUPACA        CLEAR     27  19  73 W3        30.25R
SHAWANO        CLEAR     27  19  71 CALM      30.24R
CLINTONVILLE   CLEAR     28  19  69 CALM      30.23S
$$

WIZ038-039-048-051-190000-
FOX VALLEY

CITY           SKY/WX    TMP DP  RH WIND       PRES   REMARKS
NWS GREEN BAY  CLEAR     25  21  85 CALM      30.25R
APPLETON       PTCLDY    25  18  74 VRB6      30.24R
OSHKOSH        CLOUDY    27  19  72 N6        30.24R
FOND DU LAC    CLOUDY    27  19  72 N8        30.24R
$$

WIZ022-050-052-190000-
EAST CENTRAL WISCONSIN

CITY           SKY/WX    TMP DP  RH WIND       PRES   REMARKS
STURGEON BAY   CLEAR     25  12  58 NE5       30.25S
MANITOWOC      CLOUDY    26  21  81 N6        30.25R
SHEBOYGAN      CLOUDY    28  21  75 N7        30.23S
$$

LMZ563-521-522-541>543-190000-
LAKESHORE

STATION/POSITION TIME  TEMP    WIND        PRES    VSBY  WAVE
                       AIR SEA DIR/SP/G                  HT/PER
                 (UTC) (F)     (DEG/KT/KT) (MB)    (MI)  (FT/S)
SHEBOYGAN LKSHOR 2300   28 34  320/  7/  8 1025.1R
KEWAUNEE LKSHORE 2300   25     340/  2/  6 1023.2S
ALGOMA MARINA    2200          330/  5/  6   N/A
TWO RIVERS CG    2200   28 36              1023.9      6   0
NORTHPORT PIER   2300   28      10/  8/  9 1023.7F
SISTER BAY LKSHO 2200             CALM       N/A
STURGEON BAY CG  2200   26      20/  2     1023.2      6   1
CHAMBERS ISLAND  2300   29     360/  8/ 11 1024.0S
MENOMINEE LKSHOR 2300   29      20/  9/ 11 1024.6S
$$


USA.gov is the U.S. government's official web portal to all federal, state and local government web resources and services.